Weather reports worldwide

Advertisment
La Coruna, Spain (8001): temperature & dewpoint: 09.10.2019 20:00:00 - 15.10.2019 20:00:00 (CEST)La Coruna, Spain (8001): wind speed: 09.10.2019 20:00:00 - 15.10.2019 20:00:00 (CEST)La Coruna, Spain (8001): wind direction: 09.10.2019 20:00:00 - 15.10.2019 20:00:00 (CEST)La Coruna, Spain (8001): reduced air pressure: 09.10.2019 20:00:00 - 15.10.2019 20:00:00 (CEST)La Coruna, Spain (8001): visibility: 09.10.2019 20:00:00 - 15.10.2019 20:00:00 (CEST)La Coruna, Spain (8001): precipitation: 09.10.2019 20:00:00 - 15.10.2019 20:00:00 (CEST)
Date & Time tt [°C] td [°C] ff [km/h] ff [kn] dd ppp [hPa] vv [km] rr [mm]
15.10.2019 20:00:00 - - - - - - - -
15.10.2019 19:00:00 15,8 12,7 15 8 SSW 1015,0 18 0,2
15.10.2019 18:00:00 16,3 12,6 16 9 SSW 1015,3 10 0,2
15.10.2019 17:00:00 16,4 12,2 16 9 SSW 1015,4 20 -
15.10.2019 16:00:00 15,7 12,8 11 6 SSW 1016,1 20 0,6
15.10.2019 15:00:00 16,8 12,1 18 10 SSW 1016,3 15 0,0
15.10.2019 14:00:00 17,0 11,3 16 9 SSW 1016,5 25 -
15.10.2019 13:00:00 15,9 11,9 15 8 SSW 1017,3 19 0,0
15.10.2019 12:00:00 16,3 11,0 11 6 SSW 1017,7 20 0,0
15.10.2019 11:00:00 15,3 10,9 16 9 S 1017,6 25 -
15.10.2019 10:00:00 13,7 10,3 13 7 S 1017,4 20 0,0
15.10.2019 09:00:00 13,5 9,7 11 6 S 1017,3 20 0,0
15.10.2019 08:00:00 13,5 9,9 11 6 S 1017,4 15 -
15.10.2019 07:00:00 14,0 10,0 15 8 SSW 1017,4 20 0,0
15.10.2019 06:00:00 13,4 9,6 16 9 SSW 1017,4 20 0,0
15.10.2019 05:00:00 13,1 9,9 16 9 SSW 1017,5 14 -
15.10.2019 04:00:00 13,2 9,8 18 10 SSW 1017,6 20 0,0
15.10.2019 03:00:00 12,9 9,9 18 10 SW 1017,7 20 0,0
15.10.2019 02:00:00 12,7 10,1 16 9 SSW 1017,6 20 -
15.10.2019 01:00:00 12,4 10,1 18 10 SSW 1017,4 20 0,0
15.10.2019 00:00:00 12,6 10,1 15 8 SW 1017,3 20 1,0
14.10.2019 23:00:00 12,7 10,6 15 8 WSW 1017,0 10 -
14.10.2019 22:00:00 13,0 10,5 4 2 S 1016,4 9 3,0
14.10.2019 21:00:00 13,5 9,5 16 9 WSW 1015,7 19 0,0
14.10.2019 20:00:00 13,6 9,8 18 10 W 1014,8 20 -
14.10.2019 19:00:00 13,6 10,0 26 14 W 1013,7 20 2,0
14.10.2019 18:00:00 14,6 9,8 26 14 WSW 1012,8 18 0,2
14.10.2019 17:00:00 14,2 9,2 16 9 SW 1012,0 20 -
14.10.2019 16:00:00 13,0 8,9 18 10 SW 1011,5 19 0,0
14.10.2019 15:00:00 14,5 11,3 18 10 WSW 1011,0 20 0,2
14.10.2019 14:00:00 12,9 11,0 13 7 WSW 1010,7 10 -
14.10.2019 13:00:00 13,8 11,7 21 11 W 1009,7 17 6,0
14.10.2019 12:00:00 14,8 12,3 13 7 WSW 1008,3 17 0,0
14.10.2019 11:00:00 14,3 12,0 18 10 SW 1007,5 20 -
14.10.2019 10:00:00 13,7 11,7 15 8 SSW 1006,7 20 0,2
14.10.2019 09:00:00 13,5 11,9 11 6 SW 1006,0 7 3,0
14.10.2019 08:00:00 13,5 12,1 11 6 S 1005,9 10 -
14.10.2019 07:00:00 13,7 11,9 15 8 S 1005,6 13 1,0
14.10.2019 06:00:00 13,8 11,8 16 9 S 1005,7 18 0,0
14.10.2019 05:00:00 13,6 11,6 13 7 SSE 1006,4 18 -
14.10.2019 04:00:00 13,5 11,7 15 8 S 1006,9 20 0,2
14.10.2019 03:00:00 13,4 12,5 13 7 SE 1007,7 18 1,0
14.10.2019 02:00:00 13,6 12,2 9 5 SSE 1008,6 15 -
14.10.2019 01:00:00 13,3 12,4 5 3 SSE 1009,0 13 0,2
14.10.2019 00:00:00 13,4 12,8 8 4 SE 1009,7 14 2,0
13.10.2019 23:00:00 13,7 12,8 5 3 ESE 1010,1 15 -
13.10.2019 22:00:00 14,1 12,1 11 6 SSE 1010,4 7 2,0
13.10.2019 21:00:00 14,5 13,5 8 4 SSE 1010,2 8 0,8
13.10.2019 20:00:00 14,6 13,6 2 1 E 1010,4 5 -
13.10.2019 19:00:00 14,7 13,9 2 1 N 1010,2 7 1,0
13.10.2019 18:00:00 14,8 13,8 4 2 E 1010,4 8 2,0
13.10.2019 17:00:00 14,7 13,1 5 3 S 1010,8 7 -
13.10.2019 16:00:00 15,0 12,5 9 5 W 1010,9 11 0,6
13.10.2019 15:00:00 15,4 13,4 5 3 SE 1011,1 14 0,8
13.10.2019 14:00:00 15,3 13,7 9 5 WSW 1011,8 5 -
13.10.2019 13:00:00 15,5 13,9 4 2 SSW 1011,8 8 0,6
13.10.2019 12:00:00 15,3 13,8 9 5 SW 1011,8 12 0,6
13.10.2019 11:00:00 15,1 13,8 11 6 WSW 1011,1 15 -
13.10.2019 10:00:00 14,5 13,9 9 5 WSW 1010,5 17 0,4
13.10.2019 09:00:00 14,3 13,7 13 7 WSW 1009,3 7 0,6
13.10.2019 08:00:00 14,6 14,1 15 8 WSW 1008,3 1,5 -
13.10.2019 07:00:00 15,0 14,2 15 8 W 1007,1 1,7 6,0
13.10.2019 06:00:00 17,3 15,5 13 7 SSW 1005,5 1,7 4,0
13.10.2019 05:00:00 18,1 14,6 22 12 S 1005,0 18 -
13.10.2019 04:00:00 18,0 14,3 22 12 S 1005,3 19 0,0
13.10.2019 03:00:00 18,3 13,6 22 12 S 1006,0 20 0,0
13.10.2019 02:00:00 18,5 12,9 22 12 S 1006,2 18 -
13.10.2019 01:00:00 18,3 12,7 18 10 S 1007,4 20 0,0
13.10.2019 00:00:00 18,2 13,1 24 13 S 1007,6 20 0,0
12.10.2019 23:00:00 18,2 13,1 18 10 S 1007,8 18 -
12.10.2019 22:00:00 18,3 12,9 16 9 SSW 1007,7 20 0,0
12.10.2019 21:00:00 18,6 13,2 15 8 S 1008,3 20 0,0
12.10.2019 20:00:00 19,3 12,8 11 6 S 1008,4 20 -
12.10.2019 19:00:00 20,5 12,5 15 8 S 1008,9 20 0,0
12.10.2019 18:00:00 21,3 12,7 13 7 SSW 1009,0 20 0,0
12.10.2019 17:00:00 21,9 13,0 26 14 SSW 1009,4 20 -
12.10.2019 16:00:00 22,1 12,9 15 8 S 1009,2 20 0,0
12.10.2019 15:00:00 22,1 12,6 16 9 SSW 1009,9 20 0,0
12.10.2019 14:00:00 21,9 12,4 18 10 SSW 1010,5 25 -
12.10.2019 13:00:00 21,3 12,7 15 8 S 1011,1 20 0,0
12.10.2019 12:00:00 20,1 12,3 15 8 SSW 1011,6 20 0,0
12.10.2019 11:00:00 18,7 13,1 9 5 SSE 1011,7 22 -
12.10.2019 10:00:00 16,6 13,5 5 3 ESE 1011,8 20 0,0
12.10.2019 09:00:00 16,4 13,1 8 4 ESE 1011,8 20 0,0
12.10.2019 08:00:00 16,3 13,0 8 4 SSE 1011,7 18 -
12.10.2019 07:00:00 16,0 13,1 8 4 SE 1011,5 20 0,0
12.10.2019 06:00:00 16,6 12,9 16 9 S 1011,8 20 0,0
12.10.2019 05:00:00 15,9 13,2 15 8 SSE 1012,1 18 -
12.10.2019 04:00:00 15,7 13,2 5 3 ESE 1013,0 20 0,0
12.10.2019 03:00:00 15,8 12,9 5 3 SE 1013,7 20 0,0
12.10.2019 02:00:00 15,7 12,6 9 5 SE 1014,1 18 -
12.10.2019 01:00:00 16,1 12,6 8 4 SSE 1015,0 20 0,0
12.10.2019 00:00:00 16,1 12,6 13 7 SSW 1015,3 20 0,0
11.10.2019 23:00:00 16,3 14,0 4 2 SSW 1015,1 18 -
11.10.2019 22:00:00 16,7 14,0 8 4 S 1014,9 19 0,0
11.10.2019 21:00:00 16,7 13,8 9 5 WSW 1014,8 19 0,0
11.10.2019 20:00:00 16,7 13,6 9 5 W 1014,7 20 -
11.10.2019 19:00:00 17,3 13,8 18 10 W 1015,1 20 0,0
11.10.2019 18:00:00 18,2 14,1 16 9 W 1015,1 20 0,0
11.10.2019 17:00:00 19,0 14,7 16 9 WNW 1015,4 20 -
11.10.2019 16:00:00 18,7 14,2 9 5 N 1015,6 19 0,0
11.10.2019 15:00:00 19,2 14,2 11 6 E 1016,0 17 0,0
11.10.2019 14:00:00 17,9 13,6 8 4 W 1017,1 25 -
11.10.2019 13:00:00 16,5 13,8 8 4 W 1017,9 14 0,0
11.10.2019 12:00:00 15,9 14,1 8 4 WSW 1018,1 11 0,0
11.10.2019 11:00:00 15,7 13,9 4 2 S 1018,3 8 -
11.10.2019 10:00:00 15,0 13,5 5 3 S 1018,1 3,8 0,0
11.10.2019 09:00:00 14,6 13,3 5 3 SSE 1017,7 2,0 0,0
11.10.2019 08:00:00 14,4 13,4 2 1 S 1017,6 12 -
11.10.2019 07:00:00 13,9 13,1 2 1 ESE 1017,6 8 0,0
11.10.2019 06:00:00 13,9 13,1 4 2 SSE 1017,5 2,0 0,0
11.10.2019 05:00:00 14,4 13,4 4 2 SSE 1017,8 10 -
11.10.2019 04:00:00 14,7 13,9 2 1 SE 1018,1 2,7 0,0
11.10.2019 03:00:00 15,0 13,7 4 2 W 1018,3 10 0,0
11.10.2019 02:00:00 15,8 14,2 4 2 SW 1018,6 15 -
11.10.2019 01:00:00 16,1 14,5 5 3 SSE 1019,1 6 0,0
11.10.2019 00:00:00 16,2 14,7 5 3 SE 1019,6 4,7 0,0
10.10.2019 23:00:00 16,3 14,8 4 2 NW 1019,9 20 -
10.10.2019 22:00:00 16,5 15,2 8 4 NNW 1020,1 15 0,0
10.10.2019 21:00:00 16,4 14,9 8 4 NNW 1019,8 19 0,0
10.10.2019 20:00:00 16,6 15,0 8 4 NW 1019,7 20 -
10.10.2019 19:00:00 17,0 15,0 8 4 NNW 1020,1 19 0,0
10.10.2019 18:00:00 17,2 15,0 11 6 NW 1020,3 17 0,0
10.10.2019 17:00:00 17,8 14,9 11 6 NW 1020,7 19 -
10.10.2019 16:00:00 18,7 14,4 11 6 N 1021,0 20 0,0
10.10.2019 15:00:00 19,7 13,6 11 6 N 1021,9 20 0,0
10.10.2019 14:00:00 19,3 13,2 8 4 N 1022,7 25 -
10.10.2019 13:00:00 19,2 12,9 5 3 ENE 1023,1 20 0,0
10.10.2019 12:00:00 18,4 12,8 5 3 SE 1023,5 19 0,0
10.10.2019 11:00:00 16,7 12,4 8 4 SE 1023,8 18 -
10.10.2019 10:00:00 14,7 12,4 4 2 SSE 1023,6 18 0,0
10.10.2019 09:00:00 13,0 11,6 2 1 SSE 1023,4 18 0,0
10.10.2019 08:00:00 12,7 11,6 4 2 SSE 1023,3 15 -
10.10.2019 07:00:00 12,7 11,9 5 3 S 1023,2 17 0,0
10.10.2019 06:00:00 12,7 11,6 4 2 SSE 1023,3 19 0,0
10.10.2019 05:00:00 13,0 11,4 2 1 ESE 1023,5 20 -
10.10.2019 04:00:00 13,7 12,1 5 3 SSE 1023,8 6 0,0
10.10.2019 03:00:00 13,6 11,6 2 1 SE 1024,2 13 0,0
10.10.2019 02:00:00 14,2 11,9 4 2 SSE 1024,4 20 -
10.10.2019 01:00:00 14,7 12,4 2 1 S 1024,6 9 0,0
10.10.2019 00:00:00 15,0 12,1 4 2 WSW 1024,7 15 0,0
09.10.2019 23:00:00 15,2 12,3 2 1 S 1024,7 15 -
09.10.2019 22:00:00 15,3 12,2 5 3 W 1024,3 9 0,0
09.10.2019 21:00:00 15,7 12,4 4 2 W 1024,3 - 0,0
09.10.2019 20:00:00 16,3 12,1 8 4 WNW 1024,3 10 -

tt = temperature
td = dewpoint
ff = wind speed
dd = wind direction
ppp = reduced air pressure
vv = visibility
rr = precipitation

Next stations